This demonstration page uses our WeatherBlox Daily Observations layout. Learn more.

Left ArrowRight Arrow

39.01783, -85.05884

Hourly Observations for September 12, 2018

Temp ( °F °C ) Dew Point ( °F °C ) Humidity (%) Winds ( mph kmh ) Pressure ( in mb ) Visibility ( mi km ) Precip ( " mm )
12:52 am 00:52 Mostly Cloudy 65 18.3 60 15.6 84 84 E 8 13 30.14 1021 10 16 N/A
1:52 am 01:52 Cloudy 64 17.8 60 15.6 87 87 E 6 9 30.14 1021 10 16 N/A
2:52 am 02:52 Cloudy 64 17.8 60 15.6 87 87 E 5 7 30.13 1020 10 16 N/A
3:52 am 03:52 Cloudy 64 17.8 61 16.1 90 90 E 5 7 30.12 1020 10 16 N/A
4:52 am 04:52 Cloudy 63 17.2 60 15.6 90 90 ENE 3 6 30.13 1020 10 16 N/A
5:52 am 05:52 Mostly Cloudy 63 17.2 61 16.1 93 93 N 5 7 30.13 1020 10 16 N/A
6:25 am 06:25 Cloudy 63 17.2 61 16.1 93 93 N 6 9 30.15 1021 10 16 N/A
6:42 am 06:42 Cloudy 63 17.2 61 16.1 93 93 N 6 9 30.18 1022 10 16 N/A
6:52 am 06:52 Cloudy 63 17.2 61 16.1 93 93 N 7 11 30.15 1021 10 16 N/A
7:52 am 07:52 Cloudy 64 17.8 61 16.1 90 90 NNE 7 11 30.17 1022 10 16 N/A
8:52 am 08:52 Cloudy 65 18.3 62 16.7 90 90 NE 8 13 30.18 1022 10 16 N/A
9:52 am 09:52 Cloudy 67 19.4 62 16.7 84 84 NNE 6 9 30.18 1022 10 16 N/A
10:52 am 10:52 Mostly Cloudy 70 21.1 63 17.2 79 79 N 10 17 30.18 1022 10 16 N/A
11:52 am 11:52 Cloudy 71 21.7 61 16.1 71 71 ENE 7 11 30.18 1022 10 16 N/A
12:52 pm 12:52 Cloudy 72 22.2 61 16.1 68 68 E 7 11 30.18 1022 10 16 N/A
1:52 pm 13:52 Mostly Cloudy 74 23.3 61 16.1 64 64 NNE 7 11 30.17 1022 10 16 N/A
2:52 pm 14:52 Cloudy 73 22.8 60 15.6 64 64 NE 5 7 30.16 1021 10 16 N/A
3:52 pm 15:52 Cloudy 74 23.3 61 16.1 64 64 E 7 11 30.14 1021 10 16 N/A
4:52 pm 16:52 Cloudy 74 23.3 61 16.1 64 64 E 6 9 30.14 1021 10 16 N/A
5:52 pm 17:52 Mostly Cloudy 75 23.9 61 16.1 62 62 ENE 6 9 30.13 1020 10 16 N/A
6:52 pm 18:52 Cloudy 74 23.3 61 16.1 64 64 ENE 8 13 30.14 1021 10 16 N/A
7:52 pm 19:52 Cloudy 73 22.8 61 16.1 66 66 NNE 5 7 30.13 1020 10 16 N/A
8:52 pm 20:52 Cloudy 70 21.1 62 16.7 76 76 N 7 11 30.13 1020 10 16 N/A
9:52 pm 21:52 Mostly Cloudy 68 20 62 16.7 81 81 N 6 9 30.14 1021 10 16 N/A
10:19 pm 22:19 Mostly Cloudy 68 20 62 16.7 81 81 N 6 9 30.12 1020 10 16 N/A
10:52 pm 22:52 Mostly Cloudy 68 20 61 16.1 78 78 N 6 9 30.14 1021 10 16 N/A
11:52 pm 23:52 Cloudy 68 20 61 16.1 78 78 NNE 6 9 30.14 1021 10 16 N/A

Powered by AerisWeather